Home   Weather   New Amsterdam   Past weeks

Flag for Guyana Past Weather in New Amsterdam, Guyana — Yesterday and Last 2 Weeks

77 °F


Feels Like: 78 °F
Forecast: 77 / 90 °F
Wind: 2 mph from North

Location: Georgetown/Cheddi Jagan International Airport

Current Time: Oct 21, 2016 at 11:44:52 PM

Latest Report: Oct 21, 2016 at 11:00 PM

Visibility: 10 mi

Pressure: 29.80 "Hg

Humidity: 94%

Dew Point: 75 °F

Location of New AmsterdamLocation

Past Weather in New Amsterdam — Graph


New Amsterdam Temperature Yesterday

Maximum temperature yesterday: 93 °F (at 2:00 PM)
Minimum temperature yesterday: 73 °F (at 4:00 AM)
Average temperature yesterday: 83 °F

High & Low Weather Summary for the Past Weeks

High95 °F (Oct 18, 1:00 PM)100% (Oct 7, 4:00 AM)29.98 "Hg (Oct 7, 4:00 AM)
Low72 °F (Oct 7, 6:00 AM)47% (Oct 18, 1:00 PM)29.68 "Hg (Oct 7, 3:00 PM)
Average82 °F82%29.84 "Hg
* Reported Oct 6 10:00 PM — Oct 21 10:00 PM, New Amsterdam, Weather by CustomWeather, © 2016

Note: Actual official high and low records may vary slightly from our data, if they occured in-between our weather recording intervals... More about our weather records


New Amsterdam Weather History for the Previous 24 Hours

Scroll right to see more
Time TempWeatherWind HumidityBarometerVisibility
10:00 PM
Fri, Oct 21
77 °FPassing clouds.2 mph100%29.80 "HgN/A
9:00 PM77 °FPassing clouds.5 mph100%29.80 "HgN/A
8:00 PM77 °FPassing clouds.5 mph100%29.80 "HgN/A
7:00 PM79 °FPassing clouds.5 mph94%29.77 "HgN/A
6:00 PM81 °FPartly cloudy.7 mph89%29.77 "HgN/A
5:00 PM82 °FScattered clouds.5 mph84%29.74 "HgN/A
4:00 PM79 °FThunderstorms. Scattered clouds.No wind89%29.74 "HgN/A
3:00 PM77 °FThunderstorms. Partly sunny.9 mph89%29.74 "Hg6 mi
12:00 PM90 °FPartly sunny.7 mph67%29.80 "HgN/A
11:00 AM90 °FPartly sunny.9 mph67%29.83 "HgN/A
10:00 AM86 °FPartly sunny.2 mph75%29.86 "HgN/A
9:00 AM84 °FPartly sunny.2 mph74%29.86 "HgN/A
8:00 AM81 °FScattered clouds.5 mph89%29.86 "HgN/A
7:00 AM75 °FThunderstorms. Cloudy.2 mph89%29.83 "HgN/A
6:00 AM75 °FScattered clouds.5 mph89%29.83 "HgN/A
5:00 AM75 °FPassing clouds.2 mph89%29.80 "HgN/A
4:00 AM75 °FPassing clouds.7 mph89%29.80 "HgN/A
3:00 AM77 °FPassing clouds.7 mph83%29.80 "HgN/A
2:00 AM77 °FPassing clouds.5 mph89%29.77 "HgN/A
1:00 AM77 °FPassing clouds.5 mph94%29.80 "HgN/A
12:00 AM77 °FPassing clouds.5 mph94%29.80 "HgN/A
11:00 PM
Thu, Oct 20
77 °FPassing clouds.7 mph94%29.83 "HgN/A
Weather by CustomWeather, © 2016

See weather overviewHow to use our weather pages